Theta_e
302 301 301 301 301 301 300 301 301 302 305 311 318 320 319 320 324 328 330 331 332 334 335 336 335 334 334 332 329 329 330 331 333 333 333 334 334 334 334 334 335 334 333 333 333 331 330 330 330 330 330 329 329 329 330 330 328 328 327 328 330 331 330 329 330 331 332 333 333 332 330 328 329 332 329 324 320 321 323 320 316 314 313 312 313
303 303 303 302 301 302 301 300 300 301 301 303 310 316 317 317 319 324 328 330 331 333 335 336 335 335 334 332 331 330 330 332 333 333 334 334 334 334 335 334 334 334 334 333 333 331 330 330 330 330 329 328 329 330 330 329 328 328 329 330 331 331 329 329 330 332 333 333 333 333 331 329 330 331 327 322 320 323 327 324 317 314 313 313 315
304 304 304 303 302 302 301 300 299 299 301 301 303 308 313 316 316 319 323 327 330 332 333 335 335 335 334 333 334 332 332 333 333 333 334 335 334 334 335 334 333 334 334 333 332 331 331 331 330 330 329 329 331 331 330 330 329 329 331 332 331 329 329 330 331 332 333 333 333 332 331 330 331 330 327 323 320 324 330 326 317 314 313 316 319
304 304 304 303 303 302 301 300 299 299 300 301 301 303 307 312 315 317 321 324 327 329 331 333 335 334 334 334 334 334 333 334 334 334 335 335 335 335 334 333 333 333 333 333 333 332 331 331 330 329 329 331 332 331 331 331 330 331 332 332 330 329 329 331 332 333 333 333 333 333 330 329 331 331 328 322 320 325 330 326 317 313 315 320 322
304 304 303 303 303 302 301 300 299 299 300 300 302 302 304 307 312 317 322 324 327 328 330 332 333 333 334 335 335 335 335 335 334 334 335 335 334 334 334 334 333 333 333 333 333 332 332 331 330 330 330 331 331 331 331 332 332 332 333 331 330 329 330 331 332 333 333 333 333 332 330 330 331 332 329 323 321 327 330 325 317 314 318 324 322
304 304 303 303 303 302 302 300 299 299 300 301 302 303 304 306 310 316 322 325 327 328 329 331 333 334 334 335 335 336 336 335 333 332 334 335 334 334 334 334 334 333 333 333 333 332 332 331 330 330 331 331 331 331 332 333 333 333 331 329 329 329 330 332 333 333 333 333 333 331 330 330 332 333 330 324 323 327 329 324 318 315 319 325 323
304 303 303 303 303 303 302 301 299 299 300 301 303 304 305 306 309 315 321 324 326 327 329 331 333 333 334 335 336 336 337 335 333 332 333 334 334 334 334 334 334 333 333 332 332 332 332 331 330 331 331 331 331 332 332 333 333 332 330 329 328 329 330 332 333 333 333 333 333 331 329 331 333 333 330 326 324 327 325 321 318 316 319 324 324
303 303 303 303 303 303 302 301 300 299 300 301 303 305 305 306 310 315 319 321 323 325 329 331 332 332 334 334 335 336 336 335 333 333 334 334 334 333 334 334 334 334 333 332 332 332 331 331 331 331 330 331 332 332 333 333 333 332 330 329 329 330 330 331 333 333 333 332 333 332 331 332 333 333 331 328 329 327 323 319 318 319 321 325 325
304 303 303 303 303 303 303 301 300 299 299 301 303 305 306 307 310 315 318 321 323 325 328 331 332 332 333 335 335 335 336 334 332 332 333 334 333 333 334 334 334 333 333 331 331 331 331 331 331 330 330 332 332 332 333 333 333 333 330 329 330 330 331 331 333 333 333 333 333 332 332 332 333 332 331 330 329 326 323 320 320 321 324 326 326
303 303 303 303 303 303 303 302 300 299 299 300 302 305 307 307 310 314 319 322 323 325 328 331 332 332 333 334 335 335 335 334 332 331 332 335 334 333 333 334 333 332 332 331 330 331 331 330 330 330 331 332 332 332 333 333 332 333 332 330 330 331 331 332 333 333 333 333 333 333 333 332 332 331 331 330 327 324 323 323 322 324 326 327 326
303 303 303 303 303 304 304 303 301 299 299 300 302 305 307 308 310 313 317 321 320 321 325 330 332 332 333 333 334 334 334 331 331 331 332 335 334 332 331 332 332 332 332 332 331 331 331 331 330 331 331 332 331 331 332 332 332 333 332 331 330 330 331 332 333 333 332 332 333 333 333 332 332 331 331 330 326 323 324 325 325 325 326 326 326
303 303 303 303 304 304 304 304 302 300 299 299 301 305 307 308 311 313 315 318 319 318 319 323 329 331 331 333 333 334 333 331 330 331 333 334 334 332 330 330 331 332 331 331 332 331 331 331 331 331 331 332 330 329 331 332 333 332 332 331 330 330 331 332 333 332 332 332 333 333 333 332 331 330 331 329 326 324 325 326 326 326 326 326 325
303 303 303 303 304 304 305 304 302 299 299 299 301 306 308 309 311 314 316 318 319 318 316 319 327 329 330 333 333 333 333 331 330 330 331 333 334 332 331 331 331 331 330 330 331 331 331 331 331 331 332 332 330 328 329 333 333 333 331 331 330 331 332 333 333 332 331 331 332 332 332 332 331 330 331 329 327 326 326 327 327 327 326 326 324
303 303 303 303 304 304 305 303 300 299 299 299 303 307 309 310 311 314 317 317 317 316 315 318 326 329 329 332 333 332 333 331 329 328 329 332 333 333 331 331 331 330 330 330 331 331 331 331 330 330 331 331 329 328 329 331 332 332 331 331 332 332 332 332 333 333 332 331 330 330 330 331 331 331 330 330 329 329 327 327 327 326 326 326 324
304 303 303 304 304 305 304 302 299 299 299 301 305 309 310 310 310 313 316 316 316 315 314 317 325 329 329 332 333 333 333 331 328 328 330 332 333 332 332 332 331 331 331 331 331 331 330 330 329 328 328 330 330 328 328 330 330 330 330 330 331 331 331 331 332 333 332 331 331 330 328 329 330 331 331 330 330 329 329 328 327 326 327 327 325
304 303 304 304 304 305 304 301 299 299 301 303 306 309 309 309 310 313 315 314 313 314 314 317 325 329 330 333 332 330 331 331 329 329 331 332 332 332 332 332 331 331 332 331 331 330 330 329 329 328 328 330 330 328 328 329 329 329 329 329 329 329 329 330 331 332 332 331 331 331 330 330 330 331 331 331 329 330 330 330 329 328 328 327 326
304 304 304 304 305 304 303 301 300 300 302 304 307 309 309 309 311 313 314 312 313 315 317 319 325 329 330 332 331 330 331 331 329 329 330 331 332 332 331 332 332 331 331 330 331 331 329 327 328 328 328 328 326 327 328 328 327 328 328 329 329 329 329 330 331 331 331 331 331 331 331 331 331 332 332 331 331 330 331 330 330 329 328 327 325
304 304 304 304 304 303 302 301 301 300 302 305 307 309 309 309 311 313 313 313 314 317 321 324 326 329 331 332 332 332 332 332 330 330 330 331 332 331 331 332 332 331 331 331 332 333 330 326 326 327 327 327 325 325 327 327 327 328 329 329 330 329 329 330 330 330 331 331 331 330 330 331 332 332 332 332 332 331 331 331 331 330 329 327 326
303 304 304 304 304 303 302 301 301 301 303 305 307 309 309 310 312 312 312 313 313 316 323 327 328 330 331 332 332 332 332 332 330 330 331 331 331 331 331 332 331 330 331 332 333 333 331 329 328 327 326 325 325 324 326 328 328 328 328 329 329 328 328 328 327 328 329 329 329 330 330 330 330 331 332 333 332 332 331 330 331 331 330 329 328
303 304 304 304 304 303 302 301 301 302 303 306 308 309 309 310 312 311 311 314 313 315 324 329 328 330 331 331 331 331 331 331 330 330 330 330 331 331 331 331 330 331 331 332 332 333 332 331 331 329 326 325 325 325 326 327 326 326 327 328 328 327 328 327 326 326 328 327 328 328 329 329 329 330 330 332 332 332 331 331 331 332 331 330 329
304 304 304 304 303 302 301 301 302 303 304 307 309 309 309 312 313 311 312 315 316 318 325 329 328 330 330 330 330 329 329 329 329 330 330 330 330 331 331 331 330 330 331 331 331 330 330 329 329 327 325 326 326 326 326 326 325 326 326 327 327 327 328 327 327 327 328 328 328 328 328 329 328 328 329 330 330 331 332 331 332 332 332 331 331
304 304 304 303 302 301 301 302 303 304 306 308 309 309 310 313 313 312 313 316 317 317 319 323 327 330 330 330 329 328 329 330 331 331 331 331 332 332 332 330 328 326 328 329 328 326 326 326 325 325 326 327 328 328 328 328 328 327 326 327 328 328 328 328 328 329 328 328 329 329 329 328 327 327 329 329 330 331 331 331 331 331 331 331 331
304 304 303 301 301 302 302 303 304 305 307 309 309 310 311 312 312 312 313 316 317 314 312 314 319 324 329 331 329 328 329 331 331 331 331 331 331 331 331 329 326 324 326 328 327 326 325 324 323 326 329 330 331 331 331 330 329 328 328 328 328 328 327 328 329 330 330 329 329 329 329 329 328 328 329 329 329 328 329 329 330 330 330 330 330
304 303 301 301 302 302 303 305 306 307 308 309 310 311 312 311 311 311 311 314 316 316 313 311 311 315 320 325 327 328 329 331 332 332 331 331 331 331 331 329 327 326 326 327 327 327 327 326 326 328 331 332 333 333 333 331 330 329 329 329 330 330 330 329 330 331 331 331 329 329 328 328 328 328 328 328 327 327 326 327 329 330 330 330 330
303 302 301 302 302 303 304 305 307 309 309 309 311 311 310 310 309 309 310 311 313 316 318 315 310 310 311 313 315 319 324 329 332 331 331 331 331 331 331 330 330 330 330 330 329 329 329 328 327 329 331 333 333 334 334 332 332 331 330 329 329 330 329 329 330 331 331 331 329 328 327 327 326 326 326 327 327 328 327 328 329 329 330 330 330
303 301 302 302 302 304 305 305 307 310 309 308 309 309 309 310 309 308 309 311 311 314 318 318 314 312 311 309 309 311 315 321 327 329 330 331 331 331 332 331 331 332 331 330 330 330 329 329 329 331 332 332 333 334 333 333 332 332 331 329 328 327 327 328 329 330 330 330 329 328 328 328 328 327 326 327 328 328 329 329 329 329 329 329 329
303 301 302 303 302 303 305 305 307 309 308 307 309 310 310 311 310 308 308 310 310 311 317 319 316 313 313 313 311 309 308 309 315 319 322 324 326 328 330 331 332 332 331 331 331 330 330 330 330 330 331 331 332 333 333 333 333 332 330 328 326 325 325 326 328 329 329 329 327 327 327 328 329 328 327 327 328 328 329 329 329 329 328 328 328
303 302 303 303 301 302 304 305 306 308 308 308 309 311 311 311 311 309 309 310 311 311 315 320 319 315 314 314 314 313 309 305 306 308 311 314 318 321 323 325 327 328 328 328 328 329 330 330 330 330 330 331 332 331 331 331 332 331 329 328 328 328 327 328 329 330 331 330 329 328 328 328 328 328 328 328 328 328 329 329 330 329 328 328 328
303 303 303 303 302 302 303 304 305 307 308 308 309 310 311 312 311 310 309 309 311 312 315 320 321 318 317 317 317 316 314 310 310 311 313 313 313 314 314 314 315 316 317 316 314 315 318 320 322 325 327 328 330 331 331 331 331 330 329 329 329 329 329 330 330 331 331 331 331 330 330 330 330 330 329 329 328 328 329 329 330 330 330 329 328
303 303 303 303 302 302 302 304 305 306 307 309 309 310 311 311 310 310 309 309 310 311 316 321 320 318 318 319 320 319 319 317 316 316 316 314 312 311 310 310 310 312 312 310 306 303 304 306 310 314 318 321 324 326 327 328 329 329 329 330 330 330 330 331 331 331 331 331 330 330 330 330 331 331 331 330 329 329 330 330 330 330 330 330 329
303 303 303 303 303 302 302 304 305 305 306 307 308 309 309 310 310 310 309 308 307 308 311 317 319 318 319 321 321 321 321 320 318 316 314 313 313 312 311 311 312 313 313 311 307 302 301 301 302 305 310 315 319 320 321 322 322 323 324 325 325 326 326 326 327 328 328 329 330 330 330 330 330 330 330 330 329 329 330 330 331 331 330 330 330
303 303 303 303 303 302 302 303 304 305 306 307 307 307 308 309 309 308 308 307 307 306 306 309 313 315 317 318 319 318 317 317 315 314 313 312 312 312 312 312 312 312 311 309 305 302 301 300 301 302 306 311 314 316 316 317 317 319 320 321 321 321 320 320 320 320 321 322 323 325 326 328 328 328 329 329 329 330 330 329 330 330 330 330 330
304 303 303 303 303 303 302 303 303 305 306 307 307 307 307 308 308 307 307 307 307 307 306 306 307 308 309 310 312 312 311 311 311 311 311 310 309 309 308 308 307 306 305 304 302 301 300 300 300 301 303 307 311 313 314 315 316 316 317 318 319 319 320 320 321 321 320 319 318 318 320 321 323 324 326 328 328 328 329 329 329 330 330 330 330
304 304 303 303 303 303 303 303 303 305 306 307 307 307 307 307 307 307 307 307 307 307 307 307 306 306 306 306 306 306 305 305 305 305 305 305 304 304 304 303 303 302 301 301 301 301 301 302 302 302 302 304 306 307 309 310 312 312 313 313 314 315 316 317 319 321 322 322 320 319 319 319 319 320 321 323 324 324 325 326 328 329 329 330 330
304 304 303 303 304 304 303 303 304 305 306 307 308 308 308 307 307 307 307 307 307 307 307 307 307 307 306 306 306 305 305 305 305 305 305 305 305 305 305 304 304 304 303 302 302 302 303 305 306 307 307 307 307 307 307 306 307 308 309 310 311 312 313 314 316 318 320 322 322 322 322 321 320 319 320 321 322 322 322 323 325 326 327 328 328
304 304 304 304 304 304 303 304 304 305 306 307 308 308 308 308 308 308 308 307 308 308 307 307 307 307 307 307 307 307 307 306 306 306 306 306 307 307 307 307 307 306 306 305 305 304 304 306 307 309 310 310 310 310 311 310 310 309 309 309 310 311 311 312 313 314 315 317 320 322 324 324 324 322 322 322 322 322 322 322 322 324 325 326 327
304 304 304 305 305 305 304 304 305 306 307 308 308 308 308 308 307 308 308 308 308 308 308 308 307 308 308 308 307 307 307 307 307 307 307 307 307 307 308 308 308 308 308 308 307 306 306 306 307 308 308 309 309 310 310 311 312 312 312 311 312 312 312 313 313 313 313 313 315 318 321 324 325 326 326 325 324 324 323 322 321 321 322 323 324
306 305 305 305 306 306 305 305 305 306 307 308 308 307 308 308 308 308 308 308 308 308 308 308 308 307 307 307 308 308 308 308 307 307 307 307 307 307 307 307 307 308 309 309 309 309 309 309 309 308 308 308 308 308 308 309 309 310 310 311 311 312 313 314 315 315 315 315 315 315 318 320 322 324 325 325 326 326 326 325 325 324 322 321 321
306 306 306 305 305 306 306 306 306 307 307 307 307 307 307 307 308 308 308 308 308 308 308 308 308 307 307 307 307 307 308 308 308 307 307 307 307 307 307 308 308 308 310 311 312 312 312 312 312 312 312 311 311 310 310 309 309 309 309 310 310 311 311 312 313 315 316 316 317 318 319 320 321 321 322 323 325 326 327 327 327 327 327 325 324
304 305 306 306 306 306 306 306 307 307 307 307 307 307 307 307 307 308 308 308 309 309 309 308 308 308 307 307 307 307 307 308 308 308 308 307 307 307 307 308 308 309 311 312 312 312 312 312 312 313 313 313 313 313 312 312 312 311 311 310 310 310 310 311 312 313 314 316 317 318 319 320 320 321 321 322 323 324 325 325 325 326 327 327 328
302 303 304 305 306 306 307 307 307 308 308 308 308 307 307 307 307 307 308 308 308 308 308 308 308 309 309 308 308 308 307 307 308 308 307 308 308 308 308 309 309 310 311 312 312 312 313 313 313 313 313 313 312 312 312 312 312 312 312 312 312 312 312 312 312 312 313 313 314 315 317 318 318 319 320 321 321 322 322 322 323 324 324 325 326
301 301 302 304 305 306 306 307 307 308 308 308 308 308 307 307 307 307 307 308 308 308 308 308 309 309 309 309 309 309 309 308 308 308 308 308 309 309 309 309 309 310 311 311 311 312 312 312 313 313 313 313 313 312 312 311 311 311 311 311 311 311 312 312 312 312 313 312 313 313 314 314 315 316 317 317 318 319 320 320 320 321 322 323 323
300 300 301 302 303 304 305 306 307 307 308 308 308 308 308 308 308 308 308 308 309 308 309 309 308 308 309 309 309 309 309 309 308 308 309 309 309 309 309 310 310 311 311 312 312 312 312 312 312 312 312 312 311 311 311 311 310 310 310 310 310 310 310 310 310 311 311 311 312 312 312 313 313 314 314 314 314 315 316 317 318 319 320 321 321
299 299 300 300 301 301 302 303 304 305 306 307 308 308 308 308 308 308 308 308 309 309 309 309 309 309 308 308 309 309 309 309 309 309 309 309 310 310 310 310 311 311 311 311 311 311 311 310 310 310 310 309 309 309 309 309 309 309 309 309 309 309 309 309 308 309 309 309 310 310 310 311 311 312 312 312 312 312 312 312 313 314 315 317 318
298 299 299 299 300 300 300 301 302 303 304 305 305 306 307 307 307 307 307 308 308 308 308 308 309 308 309 309 309 309 309 309 309 309 309 309 309 309 309 309 309 309 309 309 309 309 309 308 308 308 307 307 307 307 307 307 307 307 307 307 307 307 307 307 307 307 307 307 307 307 307 308 308 309 310 310 310 310 310 310 309 309 309 310 312
297 297 298 298 299 299 299 299 300 301 301 302 303 303 304 305 306 306 306 307 307 307 308 308 308 308 309 309 309 309 309 309 309 309 308 308 308 308 308 308 308 308 307 307 307 307 307 306 306 306 306 306 306 306 306 306 306 306 306 306 306 306 306 306 306 306 306 306 306 306 306 306 306 307 307 308 308 308 308 309 309 308 308 308 307
296 296 296 297 297 298 298 298 298 299 299 300 300 301 301 302 303 304 305 306 306 307 307 308 308 308 308 308 308 308 308 308 308 308 308 308 307 307 307 307 307 306 306 306 306 305 305 305 305 305 305 305 305 306 306 306 306 306 306 306 306 306 306 306 306 306 306 306 307 307 307 307 307 307 307 306 306 307 307 307 307 307 307 306 306
296 295 296 296 297 297 297 298 298 298 298 299 299 300 300 301 302 303 304 305 305 306 306 307 307 307 307 308 308 308 308 307 307 307 307 307 307 306 306 306 305 305 305 304 304 304 304 304 304 304 304 304 304 304 304 304 304 304 305 305 305 305 304 304 305 305 305 306 306 306 306 306 306 306 306 306 306 306 306 306 306 306 305 305 305
296 296 296 296 296 296 297 297 298 298 298 298 299 299 300 300 301 302 303 304 305 305 305 306 306 306 306 306 307 307 306 306 306 306 306 305 305 305 305 304 304 304 303 303 303 303 303 303 303 303 303 303 303 303 303 303 303 303 303 303 303 303 303 303 303 303 304 304 304 305 305 305 305 305 305 305 305 306 306 306 306 306 306 306 305
298 298 297 297 296 296 296 297 297 298 298 299 299 299 299 300 300 301 302 303 303 303 304 304 304 305 305 305 305 305 304 304 304 304 304 304 303 303 302 302 302 302 302 302 302 301 301 301 302 302 302 302 302 302 302 302 302 302 302 302 302 302 302 302 302 302 303 303 303 303 303 303 304 304 304 305 305 305 305 305 306 306 306 306 306
299 299 299 298 298 297 297 297 297 297 298 298 299 299 299 299 299 300 300 301 301 301 302 302 302 302 302 303 302 302 302 302 302 302 302 301 301 301 301 301 301 301 301 301 301 301 301 300 300 301 300 300 300 300 300 300 300 300 300 301 301 301 301 301 301 301 301 302 302 302 302 302 303 303 304 304 305 305 305 305 306 306 306 306 306
Wind_Speed
31 30 29 27 28 30 30 30 29 29 31 31 31 31 29 26 25 25 28 30 32 32 33 35 34 34 36 35 30 27 26 25 24 25 29 31 33 34 33 32 32 30 29 29 31 31 31 31 30 29 27 26 26 24 24 24 24 24 23 22 22 21 21 20 18 16 18 20 20 19 19 21 22 21 19 19 18 17 15 13 11 9 8 6 5
34 35 34 31 30 31 33 34 32 31 31 32 33 34 34 32 28 26 27 29 30 33 35 35 35 36 37 36 32 29 28 27 24 25 28 31 33 33 33 32 32 31 30 30 31 31 32 31 31 31 29 28 27 25 25 25 25 24 23 23 22 22 22 21 19 19 20 22 22 21 22 22 22 22 21 19 19 19 17 15 13 10 8 7 6
36 37 38 37 33 31 34 36 36 34 33 33 34 34 36 36 33 30 27 28 29 33 36 34 35 38 37 36 35 32 30 29 26 25 27 29 33 34 32 31 31 31 31 30 30 31 31 31 31 31 30 28 27 26 25 25 25 24 24 23 22 22 22 21 20 20 21 23 24 23 24 24 22 22 22 19 19 18 17 15 14 12 10 9 7
36 38 39 39 36 32 32 36 39 38 35 36 36 35 36 37 36 33 29 27 29 31 33 33 34 37 38 38 38 35 32 30 28 26 25 26 30 33 32 30 30 30 30 30 30 31 31 30 30 30 29 27 26 26 25 25 25 24 23 23 23 23 22 21 21 20 21 24 26 25 25 25 23 23 23 21 19 18 16 15 14 13 13 11 8
34 37 39 38 36 34 33 35 39 40 38 38 38 36 36 36 36 35 30 27 28 29 30 33 33 35 38 39 40 37 34 31 28 26 25 25 28 31 31 30 30 30 30 30 30 30 31 31 29 28 28 27 27 26 25 25 25 24 23 23 23 23 21 21 21 21 22 24 27 27 25 25 25 24 23 22 20 19 17 16 14 15 15 12 9
32 34 36 37 36 36 36 37 39 40 39 39 40 39 37 35 34 34 31 28 28 28 29 34 34 35 39 41 39 36 34 32 29 27 26 25 26 29 31 31 29 29 30 30 29 30 30 29 27 27 27 27 27 27 26 25 25 24 23 23 23 23 22 21 21 22 23 25 27 28 27 27 27 26 24 22 21 21 20 18 16 17 16 12 9
32 32 35 37 37 37 37 38 39 40 38 38 40 41 38 35 32 32 32 30 28 28 29 33 34 34 39 40 36 34 34 32 30 27 27 26 26 28 30 31 30 29 29 29 29 29 29 28 27 26 26 27 27 28 27 26 25 24 23 23 23 24 23 23 22 24 25 25 27 28 29 29 28 26 24 22 20 20 20 20 19 19 18 14 10
32 33 37 39 38 38 38 38 39 39 38 38 40 41 38 35 31 30 32 32 30 30 30 32 34 34 37 39 36 34 34 32 30 28 28 27 26 26 28 30 30 29 29 29 29 29 29 28 27 26 26 27 27 28 27 26 24 23 23 23 23 23 24 24 24 26 27 27 28 29 30 31 29 27 25 23 23 22 21 21 19 17 18 16 12
32 34 39 40 39 38 37 37 39 39 38 38 40 40 38 35 30 29 32 32 31 30 29 30 32 33 36 38 35 34 35 34 31 29 29 29 27 25 27 30 31 30 30 30 30 30 30 29 27 26 26 26 27 28 27 25 23 23 23 24 24 24 25 25 25 28 29 29 31 32 32 33 32 30 28 26 27 25 23 21 17 15 17 16 13
32 35 39 39 38 37 36 37 40 40 40 40 41 41 38 34 30 29 30 29 27 26 27 29 32 32 34 36 34 33 35 34 32 30 29 30 28 26 26 27 28 29 30 30 30 30 29 28 26 25 25 25 25 25 25 23 22 22 23 24 25 26 27 27 27 29 31 32 34 34 35 36 34 33 31 28 27 25 24 23 19 16 18 18 15
33 35 38 38 37 36 36 38 41 42 41 41 42 42 38 33 31 30 31 29 26 26 26 28 34 33 31 34 35 34 35 34 32 30 30 31 30 27 25 25 26 27 28 28 28 27 27 27 26 25 24 24 23 23 22 21 21 22 23 24 25 26 27 27 28 30 31 33 35 36 37 38 36 33 32 28 27 27 26 24 21 19 20 20 18
33 35 36 36 36 36 36 39 42 43 42 43 44 42 37 33 32 32 33 33 31 31 33 29 32 32 30 33 35 35 34 33 31 30 29 30 31 27 25 25 26 27 26 25 25 25 26 27 26 25 24 23 22 22 22 21 21 22 22 23 25 25 26 26 26 28 30 32 34 36 38 39 37 35 32 29 28 28 27 25 23 21 21 20 17
33 34 34 35 35 35 36 39 42 43 44 45 45 41 36 33 32 33 34 34 33 34 36 34 33 36 34 33 34 33 33 32 30 29 27 28 29 28 25 25 26 28 27 25 25 25 25 25 24 23 22 22 22 23 24 23 22 22 22 22 23 24 26 25 23 24 26 28 31 34 37 39 38 35 33 30 29 29 28 27 24 22 22 20 16
33 32 33 35 35 34 36 39 41 43 45 46 45 39 34 32 32 32 33 32 32 34 36 34 34 39 38 35 34 32 33 32 29 28 27 27 28 27 26 25 26 27 27 26 25 24 24 23 22 21 20 20 21 23 24 23 23 24 24 22 22 24 26 25 22 22 23 25 27 30 33 36 37 35 32 30 28 28 27 26 24 22 21 18 14
31 31 33 34 34 33 36 38 41 43 45 46 43 36 31 31 31 31 32 32 32 33 34 34 35 41 39 37 36 33 33 32 30 29 28 28 28 28 26 26 26 26 25 25 24 23 22 20 20 21 21 20 22 23 22 21 22 23 25 24 23 25 26 25 23 22 21 22 25 26 28 30 32 32 31 30 28 26 23 21 20 20 19 17 15
29 30 32 33 33 33 36 39 41 43 44 44 40 34 30 29 30 31 32 33 32 33 34 34 35 41 40 39 38 35 34 33 31 30 30 29 29 28 27 26 25 25 24 24 23 22 21 20 21 23 23 22 22 23 23 23 23 24 26 26 26 26 27 25 23 22 20 20 22 24 25 27 28 30 30 30 28 26 24 22 22 21 20 20 19
28 29 31 33 33 34 37 39 41 43 43 41 39 33 27 27 30 31 31 32 33 34 34 31 36 41 40 41 41 39 37 35 33 31 31 31 31 29 28 26 25 25 24 24 24 23 22 22 22 24 24 23 23 24 26 26 26 26 26 27 27 27 26 24 22 22 21 20 21 22 23 24 26 28 30 30 29 28 27 27 26 24 23 23 23
27 29 31 32 33 35 37 39 41 44 42 39 37 31 25 28 31 30 27 26 28 31 26 27 37 41 42 44 44 42 39 36 34 33 32 32 32 31 29 27 26 25 25 25 24 24 24 23 23 24 25 24 25 27 28 29 28 28 27 26 26 27 26 25 24 24 23 22 21 21 21 22 23 25 27 30 31 30 30 29 27 26 25 26 25
27 28 30 31 33 35 37 39 41 42 40 38 34 26 24 29 30 26 19 15 21 28 22 29 40 40 42 44 41 39 38 36 35 33 31 32 32 31 30 28 27 27 27 26 25 25 25 25 24 25 25 25 26 27 28 29 29 27 26 26 27 26 25 25 25 25 25 24 24 23 22 22 22 23 25 28 31 32 31 29 28 27 27 27 26
26 27 29 31 33 35 36 39 41 41 39 35 29 23 25 29 26 19 14 9 16 25 12 30 43 40 39 40 37 36 37 37 34 31 30 31 32 32 30 29 29 29 28 28 28 27 26 26 26 26 25 24 25 26 25 25 25 24 24 25 25 25 25 25 25 24 24 23 23 23 22 21 21 23 24 27 30 32 32 31 30 29 27 27 27
24 26 28 30 33 34 36 38 39 39 37 29 23 24 26 26 20 16 16 16 12 18 7 23 38 39 37 35 34 34 33 32 31 29 31 33 33 33 32 30 30 30 29 29 29 28 28 26 26 26 25 24 24 24 23 23 23 22 22 22 21 21 23 23 22 22 22 21 21 22 22 22 22 22 24 26 29 31 32 32 31 30 28 28 28
24 26 27 29 31 33 36 36 35 36 31 21 21 25 22 18 16 17 22 21 8 11 13 10 26 38 39 33 32 31 28 30 31 29 30 31 30 32 33 32 31 30 29 29 28 27 26 24 24 25 25 24 24 22 21 22 22 22 21 19 18 18 20 21 20 20 21 20 20 21 21 22 23 23 24 25 27 28 29 29 29 28 27 27 28
23 24 25 28 30 31 33 32 31 30 24 16 21 23 15 12 10 9 12 11 4 7 10 11 18 31 35 32 31 29 28 31 33 31 30 28 27 29 30 29 28 27 27 28 27 26 25 24 23 24 23 23 23 21 21 21 20 21 20 19 18 17 17 18 18 19 20 20 20 21 21 22 23 23 24 25 26 26 26 26 25 25 25 25 26
21 22 25 28 28 27 28 26 25 25 20 16 21 19 11 10 7 2 4 3 6 10 8 13 23 28 31 30 29 29 31 32 32 30 30 29 28 29 28 26 26 25 25 26 26 26 26 26 24 23 22 21 21 20 19 19 18 18 18 18 18 18 18 18 18 19 20 20 20 20 20 21 22 23 23 23 23 24 24 24 24 24 24 24 25
19 22 25 25 24 23 22 21 18 16 14 18 19 15 10 9 8 5 5 5 5 7 12 20 25 27 28 26 23 25 29 31 29 27 27 28 27 28 28 27 26 25 24 26 26 26 26 25 23 22 22 21 20 19 18 18 17 17 17 17 18 19 19 19 19 20 20 20 20 19 19 19 19 19 19 20 21 22 23 24 25 25 26 26 26
20 23 23 21 20 16 16 23 19 5 15 17 11 10 9 7 6 5 3 7 5 4 9 19 26 27 27 25 21 21 23 24 23 22 23 26 26 26 27 27 25 23 22 22 23 22 22 21 20 20 20 20 20 19 18 18 17 17 17 17 17 18 19 19 20 20 21 21 19 18 17 17 17 16 17 18 20 20 20 20 22 23 25 27 29
20 23 20 18 16 11 15 26 22 6 19 13 3 4 2 2 5 4 2 8 7 5 10 17 24 28 29 28 25 22 20 20 19 18 19 23 24 23 24 24 22 22 22 21 21 21 21 20 19 19 19 19 19 19 18 18 18 17 17 17 17 18 19 19 19 19 19 19 17 16 15 16 16 16 17 18 18 19 18 19 19 20 21 23 26
19 22 17 15 18 21 22 28 23 9 15 10 1 2 2 3 1 4 1 7 9 6 11 19 22 26 29 30 29 27 25 23 22 21 20 22 23 23 23 21 20 21 22 22 20 19 18 17 17 18 18 18 18 18 18 17 18 18 16 15 14 16 17 18 18 18 18 17 17 16 16 17 17 17 18 18 19 19 20 20 20 20 19 20 23
18 21 15 14 20 27 26 27 24 14 4 8 5 5 3 5 8 7 4 3 5 6 11 19 23 24 25 27 28 30 30 27 26 25 25 25 25 25 25 24 22 21 21 20 18 17 15 15 15 15 16 16 16 16 17 17 17 18 17 15 13 13 14 16 17 17 17 17 17 17 17 18 18 18 18 19 19 20 20 21 21 21 21 22 24
18 19 14 13 20 27 28 26 26 22 12 2 5 6 2 14 19 18 15 11 10 12 13 16 22 24 25 25 26 28 30 30 28 27 27 26 25 24 23 22 19 18 16 15 15 14 14 15 15 14 15 15 14 14 13 13 13 13 14 14 14 14 15 15 16 16 15 15 16 16 17 18 18 18 19 19 19 20 21 21 21 22 22 23 25
18 17 13 12 18 25 28 26 24 23 21 13 3 0 8 18 21 20 19 17 17 18 16 15 18 21 23 24 24 25 26 26 26 24 23 22 21 19 18 16 14 12 11 11 11 12 12 12 13 14 14 15 15 14 13 12 10 9 8 8 8 9 9 10 11 11 12 13 15 15 16 17 17 18 18 18 18 19 21 22 24 25 24 24 25
17 18 15 12 15 22 26 25 20 19 22 22 14 9 12 18 20 18 17 17 17 19 19 18 18 18 18 19 21 22 22 21 19 18 17 16 15 13 12 10 9 8 8 7 9 10 11 11 11 11 12 13 14 14 13 12 11 10 8 7 5 3 2 1 1 2 4 7 11 13 15 16 17 18 18 17 18 19 20 22 25 26 27 27 27
13 16 17 13 11 16 21 21 18 18 22 25 21 18 17 18 18 15 15 15 16 17 18 18 18 18 17 16 16 17 17 16 14 13 11 10 9 9 7 6 6 7 6 6 8 9 10 11 11 11 11 11 11 11 11 10 9 8 7 6 4 3 2 0 1 1 1 1 2 5 8 11 14 16 17 18 19 21 22 24 25 25 26 28 28
10 13 15 14 9 10 15 17 17 17 19 21 21 20 19 18 16 14 14 15 15 14 12 13 14 16 17 16 15 14 13 13 13 12 11 11 10 9 8 8 8 8 7 8 9 11 12 12 12 12 11 10 10 10 9 8 7 6 5 4 4 3 2 2 3 3 3 3 3 3 3 3 7 10 12 13 15 17 20 22 24 26 28 28 28
10 10 11 11 8 7 11 14 15 14 14 17 19 18 18 18 17 17 17 16 16 15 12 9 10 11 13 15 16 15 15 16 15 15 14 14 14 13 12 12 12 12 11 11 11 12 12 13 13 13 13 12 11 11 10 9 8 7 6 5 4 3 3 2 2 3 4 5 5 6 6 5 5 5 6 8 9 10 12 14 17 21 25 27 28
10 9 9 9 6 4 8 12 12 10 11 13 15 16 16 17 18 18 18 18 17 16 14 11 8 8 10 11 13 14 15 15 14 14 14 14 15 15 14 14 14 13 12 12 11 10 11 11 11 12 12 11 11 11 10 9 8 6 5 5 4 4 5 4 4 4 4 5 7 9 10 10 9 9 9 10 10 10 11 11 12 15 17 20 23
8 8 8 8 5 3 5 8 7 7 8 10 11 12 13 14 15 16 17 17 16 16 15 12 10 8 8 8 8 9 10 11 10 10 10 11 11 12 12 11 11 11 11 11 9 9 9 9 8 8 9 9 9 9 8 8 7 6 4 3 2 3 4 5 5 6 6 6 7 8 10 12 13 14 15 15 14 14 14 14 14 15 15 16 18
4 4 3 4 4 3 4 5 4 3 4 5 6 8 10 11 12 13 13 14 13 13 13 13 12 11 10 9 8 7 7 7 6 6 6 6 6 6 7 8 8 9 10 10 9 9 9 8 7 6 5 5 5 4 4 4 4 3 2 1 1 0 1 2 3 4 5 6 6 7 8 10 12 14 16 16 17 18 19 19 19 19 18 18 18
4 4 3 3 4 4 5 5 5 3 1 2 3 4 5 7 8 9 10 10 10 9 9 9 10 10 10 9 9 8 7 7 6 5 3 3 2 3 4 5 7 8 9 9 9 8 8 8 7 7 6 5 4 3 2 1 0 1 2 2 2 2 3 3 3 3 3 4 4 4 5 6 8 10 12 13 15 19 21 23 24 24 24 23 22
3 4 4 5 6 6 5 4 3 2 1 1 2 3 4 5 4 4 5 5 6 6 6 6 6 7 8 6 5 6 6 7 7 7 5 3 1 1 2 4 5 6 6 7 7 7 6 6 6 5 5 5 5 4 3 2 2 2 3 4 5 5 6 6 6 6 6 6 5 5 4 5 5 6 8 10 13 16 18 19 21 22 24 26 27
3 3 4 4 6 7 6 5 3 2 2 3 3 2 3 3 3 3 2 2 3 3 4 4 5 6 6 4 2 2 3 4 5 6 5 3 2 2 0 2 3 3 4 4 4 4 4 4 4 4 4 4 4 4 4 5 4 4 5 5 6 7 8 9 9 10 10 11 11 10 10 10 9 9 9 10 13 15 17 17 18 19 20 22 24
5 3 3 3 5 6 7 7 6 5 5 5 4 4 4 3 2 2 2 2 2 3 3 4 5 6 6 6 5 2 2 3 4 5 5 5 5 4 3 3 2 1 2 2 2 3 3 4 5 5 5 6 6 7 9 10 11 11 11 11 11 11 12 13 13 14 15 15 16 17 17 17 17 16 15 15 15 16 18 19 20 21 21 21 21
3 2 1 2 3 4 5 7 8 8 7 6 6 6 7 7 6 6 5 5 5 5 5 6 8 7 7 7 6 4 3 6 8 8 8 7 7 6 6 5 4 3 2 1 0 1 3 4 6 7 9 10 11 13 15 16 17 18 19 19 19 19 19 19 20 20 20 20 20 21 22 23 24 24 23 22 22 21 21 22 22 23 24 24 24
5 3 2 2 2 4 5 7 8 9 10 9 8 8 8 8 8 7 7 7 7 8 8 8 9 8 8 9 7 6 7 10 11 11 10 10 9 8 8 7 6 4 3 2 2 3 5 7 8 10 12 13 15 17 19 21 22 23 24 25 25 26 26 27 27 27 27 27 26 26 27 27 28 29 29 29 29 29 28 28 28 28 28 28 28
12 11 10 9 7 5 4 5 6 9 11 12 11 10 10 9 8 8 8 8 9 9 9 10 10 10 10 10 10 10 11 12 12 12 12 11 10 9 7 6 4 3 2 3 4 7 8 10 12 13 15 17 18 20 21 23 25 26 27 28 29 29 30 30 31 31 32 33 33 33 33 34 34 34 35 35 35 36 36 35 35 35 35 34 34
19 18 17 17 16 15 13 11 8 6 6 7 9 11 11 11 11 10 10 10 11 11 12 12 11 11 10 11 11 12 12 12 11 10 9 8 6 4 3 1 1 3 5 6 8 10 12 13 15 17 19 20 22 23 24 25 25 26 26 26 26 27 28 29 30 32 33 34 34 34 34 34 34 35 36 38 39 41 42 42 43 43 43 42 41
26 24 23 22 21 20 20 19 17 15 13 11 9 9 10 11 12 13 14 14 14 14 14 13 12 11 10 10 10 10 9 8 7 5 4 2 1 2 3 5 6 7 8 10 11 13 14 15 16 17 18 19 19 19 19 19 19 19 20 20 20 21 23 24 25 26 26 26 25 25 25 26 27 28 30 32 35 38 40 42 43 45 46 46 46
31 31 30 28 26 24 23 21 21 20 19 17 15 14 13 13 14 15 16 16 15 15 14 13 12 11 10 9 8 6 5 4 3 1 1 2 3 4 5 6 6 7 8 9 10 11 11 12 12 11 11 11 10 10 10 10 11 12 13 14 15 16 17 17 17 16 16 17 18 19 21 22 22 23 24 26 28 30 33 36 37 39 41 43 44
31 32 33 33 32 30 28 25 23 21 20 19 18 17 16 16 16 17 18 18 17 16 14 13 12 11 10 9 7 5 3 2 1 1 1 2 2 3 3 4 4 5 6 6 7 8 9 9 9 8 8 8 8 8 8 8 9 9 10 11 11 12 13 14 14 15 15 16 17 18 19 20 20 22 23 24 25 26 28 30 32 34 35 37 39
27 29 31 33 33 33 33 31 29 26 23 21 20 19 18 17 17 17 17 17 17 16 15 14 13 11 10 9 7 6 6 5 6 6 5 5 6 6 6 7 7 8 9 9 10 10 11 11 10 10 9 8 8 7 7 7 7 7 8 9 10 11 13 14 15 15 16 17 17 17 18 19 20 21 22 23 23 23 23 24 26 29 30 32 34
25 26 28 30 31 32 33 33 33 32 30 28 27 25 24 22 21 20 19 18 18 17 17 16 15 15 15 14 13 13 12 12 12 12 12 12 13 13 13 13 13 12 12 11 11 11 10 9 9 8 7 7 7 7 7 8 8 9 9 10 11 11 12 13 14 14 15 15 16 17 18 20 20 21 21 20 20 20 20 20 21 23 24 26 28
Wind_Direction
346 346 345 339 332 329 325 322 317 312 309 307 305 306 310 313 306 294 286 280 270 262 260 258 255 252 248 246 246 243 241 244 243 238 236 238 241 244 244 243 243 242 240 237 234 232 233 233 233 234 235 236 233 231 231 229 227 228 229 228 227 224 222 221 222 225 220 211 207 206 199 191 188 187 190 192 187 182 182 185 189 187 188 191 169
340 341 341 338 332 326 324 323 320 314 308 304 302 301 303 308 311 303 292 288 277 259 253 256 256 252 248 245 243 238 235 238 239 237 237 237 237 238 240 241 241 240 237 234 231 229 231 232 232 233 235 235 232 229 230 228 225 224 224 223 224 222 219 218 218 218 215 207 202 200 197 193 191 188 190 196 192 185 185 187 184 180 180 174 150
332 333 333 332 329 324 320 319 321 318 311 305 302 299 298 301 307 307 298 294 287 265 251 253 255 252 249 245 240 234 233 234 235 234 236 236 235 236 238 239 238 237 235 231 228 227 229 230 230 231 233 231 228 228 228 226 223 222 222 221 221 219 215 216 218 216 211 204 199 197 195 193 192 190 190 197 197 190 191 191 182 174 170 161 143
327 326 326 325 325 323 319 316 318 320 315 309 304 300 298 297 301 305 300 295 294 277 256 251 254 252 249 244 238 232 230 231 232 232 231 231 233 234 236 237 236 235 234 231 228 228 230 229 228 231 231 227 227 227 225 222 220 220 221 220 219 216 213 215 219 218 212 203 198 198 197 192 190 191 192 194 196 195 197 194 183 174 169 162 146
325 323 321 322 323 323 320 316 316 319 317 312 307 303 299 296 297 302 301 294 294 287 263 249 250 249 244 240 237 232 228 227 228 231 231 229 230 231 232 231 232 233 234 233 231 229 230 228 227 230 230 226 226 227 223 219 218 218 220 220 217 214 212 213 217 217 213 206 199 197 196 192 189 190 194 195 192 192 196 196 187 177 174 169 153
324 323 319 320 322 323 321 317 315 317 318 313 308 305 302 299 297 297 298 296 293 289 269 250 246 245 240 236 235 232 228 224 223 226 228 226 226 229 231 229 228 231 234 234 232 230 229 227 226 229 230 227 226 226 224 219 216 217 219 218 216 213 210 210 212 213 211 208 203 198 194 192 190 189 195 198 192 190 193 193 189 184 184 183 166
323 322 318 318 321 322 320 317 315 317 318 314 309 307 303 300 297 293 294 297 294 289 274 254 246 245 240 236 234 232 228 223 221 222 225 225 224 227 230 229 226 225 228 231 231 228 225 223 224 227 229 227 226 226 224 220 217 218 219 217 215 211 208 208 211 211 209 205 204 201 194 192 193 191 195 197 195 195 197 194 189 187 191 192 180
318 320 318 316 318 320 318 316 315 316 318 315 309 307 302 298 297 291 288 293 294 292 280 257 244 241 239 236 233 229 226 222 219 221 223 224 224 223 226 229 226 222 221 222 224 224 222 220 223 228 229 226 225 225 223 220 217 219 220 216 213 210 207 209 211 209 206 203 202 201 196 193 194 193 194 196 197 200 202 199 194 189 188 188 184
314 316 316 314 315 318 317 314 315 316 318 315 309 306 301 296 295 290 286 290 292 289 279 258 244 240 237 234 232 227 223 220 217 217 220 222 222 220 221 225 225 220 216 215 216 218 219 219 223 228 228 224 224 225 222 220 220 221 221 215 211 209 207 209 210 206 204 203 202 200 197 196 194 192 194 198 198 198 199 199 197 190 185 185 186
310 312 312 312 313 315 315 314 315 316 317 315 311 307 300 295 293 288 284 291 295 288 276 258 244 238 232 230 232 227 220 219 216 214 215 218 220 220 220 223 224 221 217 213 211 211 213 217 223 227 227 223 223 224 222 221 222 225 225 219 211 208 206 208 209 206 203 201 201 201 199 197 195 195 198 201 198 196 198 198 192 186 186 189 191
307 309 310 310 310 313 314 313 314 316 315 314 312 307 299 293 291 285 280 287 296 299 290 260 235 229 225 225 229 226 219 217 217 213 211 214 219 221 219 219 220 220 219 214 207 204 208 214 218 220 221 219 217 220 223 224 223 223 226 224 216 210 207 207 207 205 204 202 201 203 203 199 196 197 200 200 196 196 200 200 194 190 192 194 195
303 306 307 308 308 311 313 312 313 314 313 312 311 307 298 291 291 287 281 280 284 295 300 279 245 233 228 223 224 224 218 215 215 213 209 209 213 215 214 214 214 215 215 212 207 205 206 210 212 211 214 213 210 213 220 224 221 217 219 220 217 214 211 210 210 208 207 204 202 205 206 202 198 198 199 198 195 196 201 204 201 199 200 202 203
300 303 304 305 307 310 311 310 311 312 311 311 310 305 296 290 291 291 284 279 281 287 294 287 259 240 230 222 219 219 217 213 209 208 206 205 207 209 208 209 209 208 207 205 203 205 207 209 210 208 209 210 208 209 213 217 217 215 214 215 216 215 213 214 217 216 213 209 206 206 207 205 202 201 200 199 196 195 198 204 207 207 208 213 214
297 299 303 305 306 309 310 309 310 310 309 310 309 303 295 287 288 292 285 280 282 282 287 286 261 237 226 219 214 212 212 208 204 203 201 199 202 204 203 204 204 203 203 201 200 202 205 206 206 204 203 203 202 204 209 212 211 208 207 209 211 211 211 212 214 216 218 216 213 210 208 207 206 205 204 203 201 200 200 203 208 210 213 219 221
293 297 303 305 307 309 308 308 310 310 310 310 307 301 293 285 285 290 284 276 276 278 285 285 256 230 221 215 209 206 207 204 201 201 198 196 198 199 197 198 199 199 201 202 200 199 199 196 193 194 196 197 196 199 204 205 200 198 201 202 202 204 207 208 206 207 212 216 217 215 212 210 210 210 211 210 209 208 209 209 211 214 219 223 223
291 298 303 305 307 308 308 308 310 311 311 309 305 300 292 283 283 288 281 274 276 279 284 278 248 225 216 209 203 204 205 202 197 196 195 192 193 193 191 191 193 194 195 195 193 189 188 186 182 183 189 194 195 195 196 195 192 194 197 197 198 201 204 204 204 204 206 212 217 218 217 216 215 215 217 218 214 211 211 213 216 218 221 224 223
293 299 303 306 308 307 307 308 311 312 310 306 303 301 289 277 282 287 281 276 281 286 283 264 237 221 212 203 198 201 202 197 193 194 193 191 191 190 187 186 187 189 188 187 185 182 181 182 180 181 185 190 189 186 188 190 190 193 196 195 197 201 201 200 200 200 201 206 213 216 216 218 219 219 219 219 217 214 212 214 216 217 219 221 221
297 301 303 307 308 305 305 308 311 311 308 304 304 301 283 274 281 283 279 280 291 296 282 242 222 213 203 197 196 197 196 191 189 192 194 193 192 188 185 185 185 185 183 182 183 182 179 179 182 183 184 185 184 182 184 187 189 192 196 196 197 198 196 195 197 196 195 198 201 204 206 208 213 218 219 219 219 220 219 218 218 219 220 221 222
297 303 305 306 305 303 305 309 310 310 307 304 306 297 275 277 282 275 272 289 309 309 279 223 212 205 194 190 190 191 192 189 187 190 192 191 190 188 185 183 180 179 180 181 181 180 178 179 182 182 181 182 183 182 181 185 189 192 195 198 199 198 195 194 196 196 195 195 194 194 197 200 202 205 209 213 217 221 224 224 223 224 224 225 226
297 302 304 304 303 303 307 310 310 310 307 306 305 287 271 278 278 263 258 283 322 326 285 201 199 196 185 182 182 185 189 187 183 185 185 184 186 185 182 178 174 173 176 176 174 173 174 176 178 178 177 179 182 181 179 182 187 191 196 200 201 201 199 197 198 199 199 198 196 194 196 199 200 201 202 206 212 217 221 224 227 229 230 230 230
299 302 302 303 304 306 310 311 310 308 307 305 294 275 270 274 266 255 262 266 302 347 22 170 182 182 176 173 174 177 182 180 177 178 178 178 182 181 176 173 171 169 169 168 168 167 168 169 171 171 172 175 179 181 180 180 184 189 194 199 202 202 202 201 202 203 203 203 202 200 199 200 203 204 204 205 208 212 217 221 224 228 231 231 232
302 302 303 306 309 312 313 311 308 306 305 298 275 265 271 280 267 262 270 265 269 14 29 113 155 163 166 166 165 167 171 168 164 165 169 172 175 173 169 168 168 168 166 165 166 166 165 166 167 167 168 172 176 180 182 183 186 188 190 194 198 199 200 202 205 207 207 206 207 206 206 206 207 208 207 207 208 210 213 217 221 225 228 229 230
304 303 308 313 316 316 313 310 306 303 300 281 256 255 274 299 280 260 271 263 169 77 26 42 100 129 143 151 157 161 163 159 153 153 159 162 164 167 168 169 172 174 172 169 168 169 167 168 169 168 169 172 174 176 180 183 186 187 189 192 195 197 199 201 204 207 208 208 208 208 209 210 211 211 211 211 212 214 216 219 222 226 228 229 230
306 309 317 321 319 316 315 315 309 301 289 255 240 249 278 299 276 256 339 344 119 123 104 73 73 87 105 122 137 146 151 153 151 151 154 155 156 163 170 173 176 179 178 174 172 171 170 171 173 173 174 176 177 178 181 183 184 186 189 193 197 201 203 201 201 204 207 209 209 209 211 213 214 216 217 217 218 220 222 224 225 227 229 229 230
310 318 326 324 316 311 323 337 327 296 254 220 225 250 284 289 266 268 347 28 100 138 125 101 85 80 86 95 103 114 127 140 145 149 155 159 160 163 167 170 173 176 177 175 172 171 172 174 175 176 178 181 183 185 187 190 192 192 193 196 200 203 205 203 201 203 207 209 209 210 211 214 217 220 222 222 222 224 226 227 228 229 230 230 230
316 328 330 325 315 310 336 358 357 288 199 195 223 268 281 288 281 276 356 43 70 145 141 116 105 99 97 93 88 92 105 121 131 136 143 150 154 159 164 166 167 170 171 168 166 167 170 172 173 177 180 184 188 191 194 198 201 201 202 204 206 208 210 210 208 208 209 210 209 209 211 213 217 219 219 220 222 224 226 228 230 232 233 234 234
324 336 331 326 336 355 8 9 17 126 181 195 275 307 260 325 320 294 31 48 55 115 149 135 121 116 115 112 109 108 109 116 121 120 121 126 131 140 149 151 152 154 153 152 154 159 164 167 171 176 179 181 185 190 196 202 204 206 209 212 214 215 215 213 212 212 214 213 213 215 217 218 220 221 220 220 222 224 226 229 230 232 233 235 237
331 341 328 326 0 27 27 18 30 101 177 190 140 45 97 87 337 268 342 45 46 86 146 150 136 125 124 123 120 119 118 118 121 121 118 117 118 122 126 126 127 132 134 136 141 150 157 163 169 175 178 179 181 184 190 196 200 205 210 212 213 214 215 214 215 217 220 221 223 226 227 224 222 222 224 226 228 228 230 231 232 231 231 233 237
333 341 324 325 5 23 22 20 33 52 133 184 195 288 303 131 141 159 156 62 45 87 141 155 147 132 126 125 122 120 118 118 121 122 120 117 116 116 115 113 112 113 115 119 123 131 139 146 152 161 168 173 177 182 187 192 197 200 202 203 205 208 212 217 220 222 225 230 234 237 236 232 226 224 228 233 235 236 236 235 235 234 233 235 238
332 339 324 329 2 13 14 23 42 50 50 115 236 284 66 119 125 124 119 106 94 99 120 144 147 138 128 123 119 116 116 117 121 123 120 117 115 113 111 108 105 101 99 99 102 111 123 133 139 146 152 155 159 165 172 181 190 194 197 201 207 212 215 220 224 225 226 231 238 241 240 239 237 234 235 237 238 241 241 240 242 243 241 240 242
335 337 326 333 359 8 11 24 46 55 48 44 23 302 106 115 117 112 103 93 89 92 100 117 130 130 127 123 118 113 113 116 118 119 117 115 113 112 110 108 103 96 88 82 83 94 110 125 136 144 147 149 150 150 152 155 156 158 165 178 195 207 215 223 230 231 230 233 238 239 239 241 244 245 246 245 243 243 243 242 244 246 247 248 249
346 346 336 337 357 6 11 24 42 46 37 41 55 81 99 108 110 104 95 91 87 88 96 106 113 117 119 119 116 112 113 115 117 116 114 111 109 109 107 103 96 87 77 71 78 91 105 119 133 144 152 156 155 153 153 152 150 149 148 148 152 158 144 128 235 236 231 233 235 235 235 236 237 241 248 253 251 249 249 248 247 247 249 251 253
340 346 343 340 354 9 12 18 30 34 30 36 49 66 81 95 101 95 90 90 87 84 88 93 98 105 110 112 113 114 115 117 118 117 112 107 103 99 97 91 84 79 74 76 86 96 106 116 126 138 153 164 165 164 162 159 156 155 151 148 150 156 157 212 272 304 360 341 254 237 236 235 233 235 242 248 249 249 250 250 248 249 251 253 254
315 327 337 338 350 16 15 10 17 33 37 36 43 61 79 92 100 99 94 91 88 87 87 82 82 90 98 103 108 110 110 111 112 109 106 103 98 93 90 86 82 78 77 86 95 101 108 113 118 123 133 144 154 160 164 167 168 168 161 151 147 151 168 208 228 235 260 301 326 331 316 269 247 243 245 249 251 250 249 249 249 249 251 253 255
333 331 336 337 342 7 11 6 14 32 38 36 41 58 78 94 102 102 99 95 92 93 97 96 86 84 89 94 100 102 102 103 100 95 93 92 91 88 88 87 86 85 87 95 102 109 116 118 118 119 121 125 130 136 144 153 165 177 184 186 189 192 195 198 206 216 229 244 264 285 301 309 308 298 290 286 282 274 268 265 263 260 258 259 259
350 352 356 355 351 338 337 347 5 23 31 37 45 55 70 87 97 98 97 97 96 96 100 103 99 91 90 93 97 100 102 101 95 89 87 88 90 91 91 91 90 87 86 90 97 108 118 121 122 121 121 121 121 121 123 127 135 149 167 182 204 225 234 240 246 246 240 237 245 256 264 271 280 290 296 299 300 298 296 292 288 282 278 274 271
336 342 357 9 18 351 308 318 344 14 28 39 47 53 65 81 94 97 96 94 93 95 98 100 97 93 95 98 100 107 110 105 98 94 94 94 95 94 89 85 79 72 69 71 77 88 100 110 119 124 125 124 122 120 119 120 121 124 134 149 180 223 245 261 268 270 270 266 265 265 264 264 266 270 274 280 285 290 294 297 297 296 295 291 287
297 306 329 355 4 347 304 298 317 4 34 37 36 42 55 71 84 91 91 90 89 91 94 96 93 89 89 89 90 104 126 134 125 115 109 102 93 81 72 66 59 56 58 62 64 70 77 83 90 101 109 114 120 123 126 130 133 135 141 134 108 99 300 300 297 295 293 292 291 289 280 271 266 265 267 272 276 278 279 280 283 287 290 292 291
245 252 251 255 281 297 299 304 316 336 22 23 11 20 37 56 74 83 86 89 91 92 96 99 97 94 96 96 92 101 133 162 170 165 150 124 80 48 43 43 42 46 57 67 70 69 69 69 70 70 71 73 78 79 72 70 20 284 280 286 292 292 290 292 293 291 289 288 292 296 288 275 267 263 261 265 271 274 273 270 269 269 272 277 281
251 247 238 234 248 261 268 284 304 318 30 67 49 36 34 42 59 74 81 85 86 87 96 107 106 103 107 113 113 121 144 170 188 196 195 189 191 344 12 24 35 49 64 71 67 60 57 57 56 51 47 50 54 52 44 28 355 316 294 286 284 282 281 281 281 278 276 275 274 274 275 274 270 265 260 260 264 268 271 271 270 267 264 265 268
331 288 259 241 236 237 236 234 229 193 145 128 114 89 64 55 53 56 63 60 51 60 80 93 92 91 92 91 100 148 173 181 191 198 200 195 189 190 96 38 45 55 56 48 38 33 28 24 18 11 8 10 10 4 357 347 335 322 307 296 292 288 285 282 280 277 276 275 275 273 273 272 271 269 267 265 266 269 272 274 277 276 273 270 269
348 333 296 255 235 230 226 222 214 196 172 155 147 142 140 143 143 136 128 108 81 77 88 89 83 83 84 81 79 99 180 171 164 168 168 163 164 167 166 162 150 100 47 23 18 14 359 343 333 326 322 318 315 314 314 314 313 311 307 303 298 294 291 288 285 282 278 275 273 273 273 274 275 274 273 271 270 270 272 274 276 278 278 279 279
5 360 326 237 226 221 216 213 212 207 199 186 171 160 156 156 155 154 148 130 111 104 105 101 96 96 101 100 95 101 138 146 144 144 147 153 160 164 164 160 158 160 176 194 223 311 310 306 304 304 305 305 303 302 301 301 302 302 301 300 298 296 294 292 290 287 284 280 276 274 273 273 274 275 276 277 276 273 272 272 273 275 277 278 279
75 86 107 156 203 213 213 214 215 215 213 207 196 182 174 167 160 155 152 143 127 115 109 106 103 106 113 117 120 127 135 138 139 139 142 149 154 154 153 151 151 160 181 205 240 266 277 282 285 289 292 293 294 294 294 294 294 295 295 295 295 294 293 293 291 290 289 286 283 281 279 277 276 275 275 277 278 278 276 275 274 274 274 274 275
87 92 96 100 106 121 152 189 208 217 220 219 216 209 199 187 173 161 157 151 142 134 127 122 119 120 125 128 132 135 134 134 134 135 136 140 142 141 140 140 140 154 211 269 285 288 290 291 291 293 294 295 295 296 295 295 294 294 293 293 294 293 293 293 293 292 292 291 289 288 285 283 281 280 278 277 277 278 277 277 277 277 277 275 273
84 87 88 90 92 94 96 101 112 133 167 189 201 205 202 195 186 176 167 160 153 148 144 140 136 136 135 134 134 135 133 132 131 130 128 129 130 128 124 125 293 298 299 300 300 299 299 299 299 299 300 300 299 300 299 298 298 297 297 297 297 296 296 296 295 295 294 293 292 291 290 288 286 284 282 280 278 278 277 276 276 277 277 277 277
77 80 81 83 84 85 86 87 89 91 95 103 118 137 154 164 170 171 168 164 161 159 157 155 152 150 147 144 141 140 137 135 133 128 118 95 27 341 324 316 313 312 311 311 311 311 311 310 309 309 308 307 306 305 304 303 302 302 303 303 304 304 304 303 302 301 300 300 299 299 299 298 296 294 291 287 284 281 280 278 277 276 275 275 276
76 77 78 79 80 81 83 84 85 87 90 93 98 106 119 135 148 158 162 164 165 165 166 165 164 162 162 161 159 155 150 148 147 142 336 329 327 324 320 319 323 326 327 329 331 332 332 331 331 331 330 329 330 331 331 331 330 328 326 325 323 322 320 319 317 316 317 317 317 316 314 311 309 307 303 298 294 289 285 282 281 279 277 275 274
77 79 79 79 79 79 81 84 86 88 91 94 97 102 112 125 139 148 155 160 163 165 167 168 166 164 163 163 164 164 163 162 149 105 29 6 3 360 358 1 6 8 12 18 21 22 23 24 27 32 35 37 37 33 24 16 7 358 350 345 341 339 339 339 338 336 333 330 327 324 321 318 315 312 308 304 300 296 290 285 281 278 276 274 273
77 79 80 81 81 81 82 83 85 87 90 93 95 98 105 114 124 134 142 147 151 153 155 157 157 156 153 151 148 144 137 126 113 102 93 88 87 86 82 78 75 72 69 68 66 64 63 64 64 65 65 65 62 56 47 35 23 11 4 359 356 353 351 349 346 342 338 334 333 331 328 324 320 315 311 307 303 301 298 291 285 279 276 273 271
76 77 79 80 82 83 83 84 85 87 89 91 93 95 98 102 106 111 116 120 122 124 127 129 131 131 130 128 126 123 119 114 109 106 104 101 99 95 91 87 84 82 80 80 80 79 79 79 78 74 70 64 56 48 40 33 25 18 12 7 3 360 357 354 351 348 344 340 338 337 336 334 330 325 320 314 310 307 305 302 296 289 284 279 276